Home   Weather   Mount Vernon   Past weeks
Flag for USA

Past Weather in Mount Vernon, USA — Yesterday and Last 2 Weeks

Now
59 °F

Passing clouds.


Feels Like: 58 °F
Forecast: 63 / 44 °F
Wind: 8 mph from Northeast

Location: Knox County Airport

Current Time: Apr 19, 2019 at 5:05:07 am

Latest Report: Apr 19, 2019 at 4:15 am


Visibility: 10 mi

Pressure: 29.54 "Hg

Humidity: 100%

Dew Point: 59 °F

Location of Mount VernonLocation

Past Weather in Mount Vernon — Graph

°F

Mount Vernon Temperature Yesterday

Maximum temperature yesterday: 77 °F (at 3:35 pm)
Minimum temperature yesterday: 57 °F (at 2:35 am)
Average temperature yesterday: 68 °F

High & Low Weather Summary for the Past Weeks

 TemperatureHumidityPressure
High79 °F (Apr 11, 4:36 pm)100% (Apr 5, 6:15 am)30.44 "Hg (Apr 5, 6:15 am)
Low34 °F (Apr 15, 3:55 am)30% (Apr 9, 5:35 pm)29.27 "Hg (Apr 14, 5:15 pm)
Average56 °F71%29.96 "Hg
* Reported Apr 4 3:15 am — Apr 19 3:36 am, Mount Vernon. Weather by CustomWeather, © 2019

Note: Actual official high and low records may vary slightly from our data, if they occured in-between our weather recording intervals... More about our weather records

Advertising

Mount Vernon Weather History for the Previous 24 Hours

Scroll right to see more
 ConditionsComfort  
Time TempWeatherWind HumidityBarometerVisibility
3:36 am
Fri, Apr 19
59 °FPassing clouds.6 mph100%29.56 "Hg10 mi
3:15 am59 °FPassing clouds.7 mph100%29.57 "Hg10 mi
2:55 am59 °FLight rain. Passing clouds.7 mph100%29.57 "Hg10 mi
2:35 am59 °FPassing clouds.8 mph100%29.58 "Hg10 mi
2:15 am61 °FPassing clouds.7 mph94%29.60 "Hg10 mi
1:55 am61 °FPassing clouds.7 mph94%29.60 "Hg10 mi
1:35 am61 °FClear.6 mph94%29.61 "Hg10 mi
1:15 am61 °FClear.7 mph94%29.61 "Hg10 mi
12:55 am63 °FClear.6 mph88%29.61 "Hg10 mi
12:35 am63 °FClear.8 mph88%29.62 "Hg10 mi
12:15 am64 °FClear.8 mph78%29.62 "Hg10 mi
11:55 pm
Thu, Apr 18
66 °FClear.6 mph68%29.62 "Hg10 mi
11:35 pm64 °FClear.6 mph73%29.62 "Hg10 mi
11:15 pm66 °FClear.No wind68%29.62 "Hg10 mi
10:55 pm68 °FClear.6 mph64%29.63 "Hg10 mi
10:35 pm66 °FClear.5 mph68%29.64 "Hg10 mi
10:15 pm70 °FClear.3 mph60%29.65 "Hg10 mi
9:55 pm70 °FClear.5 mph60%29.65 "Hg10 mi
9:35 pm70 °FClear.3 mph57%29.65 "Hg10 mi
9:15 pm70 °FClear.6 mph57%29.65 "Hg10 mi
8:55 pm70 °FClear.6 mph60%29.65 "Hg10 mi
8:35 pm72 °FClear.6 mph53%29.66 "Hg10 mi
8:15 pm73 °FPassing clouds.8 mph50%29.66 "Hg10 mi
7:56 pm73 °FScattered clouds.8 mph50%29.66 "Hg10 mi
7:35 pm73 °FScattered clouds.7 mph50%29.65 "Hg10 mi
7:15 pm75 °FScattered clouds.10 mph47%29.66 "Hg10 mi
6:55 pm75 °FScattered clouds.12 mph47%29.66 "Hg10 mi
6:35 pm75 °FSunny.16 mph44%29.66 "Hg10 mi
6:15 pm77 °FSunny.14 mph44%29.65 "Hg10 mi
5:55 pm75 °FSunny.20 mph47%29.65 "Hg10 mi
5:35 pm77 °FSunny.16 mph47%29.67 "Hg10 mi
5:15 pm77 °FSunny.17 mph44%29.67 "Hg10 mi
4:35 pm77 °FSunny.17 mph42%29.69 "Hg10 mi
3:55 pm75 °FSunny.16 mph47%29.71 "Hg10 mi
3:35 pm77 °FSunny.15 mph47%29.72 "Hg10 mi
3:15 pm73 °FSunny.16 mph53%29.72 "Hg10 mi
2:55 pm75 °FSunny.17 mph50%29.72 "Hg10 mi
2:35 pm73 °FSunny.14 mph53%29.74 "Hg10 mi
2:15 pm73 °FSunny.17 mph53%29.74 "Hg10 mi
1:55 pm73 °FSunny.17 mph53%29.75 "Hg10 mi
1:35 pm72 °FSunny.13 mph61%29.76 "Hg10 mi
1:15 pm72 °FSunny.17 mph61%29.76 "Hg10 mi
12:55 pm72 °FSunny.20 mph61%29.76 "Hg10 mi
12:35 pm72 °FSunny.18 mph61%29.77 "Hg10 mi
12:15 pm72 °FSunny.20 mph61%29.79 "Hg10 mi
11:55 am70 °FScattered clouds.18 mph64%29.80 "Hg10 mi
11:35 am70 °FScattered clouds.13 mph60%29.80 "Hg10 mi
11:15 am72 °FSunny.15 mph57%29.79 "Hg10 mi
10:55 am70 °FSunny.16 mph60%29.79 "Hg10 mi
10:35 am70 °FSunny.16 mph60%29.78 "Hg10 mi
10:15 am68 °FScattered clouds.10 mph64%29.79 "Hg10 mi
9:55 am68 °FScattered clouds.9 mph64%29.79 "Hg10 mi
9:15 am66 °FPartly sunny.10 mph64%29.80 "Hg10 mi
7:55 am64 °FPartly sunny.9 mph60%29.80 "Hg10 mi
7:35 am64 °FScattered clouds.10 mph60%29.79 "Hg10 mi
7:15 am64 °FPartly sunny.10 mph60%29.78 "Hg10 mi
6:56 am63 °FThundershowers. Partly sunny.12 mph64%29.78 "Hg10 mi
6:35 am63 °FPassing clouds.9 mph64%29.78 "Hg10 mi
6:15 am63 °FPassing clouds.8 mph64%29.78 "Hg10 mi
5:55 am61 °FOvercast.7 mph68%29.78 "Hg10 mi
5:35 am61 °FOvercast.7 mph68%29.79 "Hg10 mi
5:15 am61 °FOvercast.5 mph68%29.79 "Hg10 mi
Weather by CustomWeather, © 2019

See weather overview